[[{"header":{"parameterUnit":"m.s-1","parameterCategory":1,"la1":30.2991,"la2":30.254,"lo1":-89.0895,"lo2":-89.0444,"dy":0.0017,"dx":0.0017,"nx":28,"ny":28,"refTime":"2023-04-17T15:00:00:Z","depth":0,"parameterNumber":2,"parameterNumberName":"U-component_of_WINDS"},"data":[0,0,0,0,0,0,0,0,0,0,0,0,0,0,0,0,0,0,0,0,0,0,0,0,0,0,0,0,0,0,0,0,0,0,0,0,0,0,0,0,0,0,0,0,0,0,0,0,0,0,0,0,0,0,0,0,0,0,-1.238,-1.238,0,-1.2378,-1.2378,-1.2378,-1.234,-1.2339,-1.2338,-1.2337,-1.2338,-1.2339,-1.234,0,0,0,0,0,0,0,0,0,0,0,0,0,-1.2351,-1.2351,-1.238,-1.238,-1.238,-1.2378,-1.2378,-1.2378,-1.234,-1.2339,-1.2338,-1.2337,-1.2337,-1.2339,-1.234,0,0,0,0,0,0,0,0,0,0,0,0,0,-1.2358,-1.2352,-1.238,-1.236,-1.2359,-1.2378,-1.2378,-1.2378,-1.234,-1.2339,-1.2337,-1.2336,-1.2337,-1.2338,-1.234,-1.2379,0,0,-1.2344,-1.2345,0,0,0,0,0,0,0,0,-1.2358,-1.2359,-1.2363,-1.2362,-1.236,-1.2358,-1.2368,-1.2379,-1.2341,-1.2347,-1.2337,-1.2335,-1.2346,-1.2346,-1.2349,-1.2379,-1.2379,-1.2344,-1.2345,-1.2346,-1.2346,0,0,0,0,0,0,0,-1.2357,-1.2359,-1.2379,-1.2363,-1.2361,-1.2352,-1.2352,-1.237,-1.2355,-1.2347,-1.2344,-1.2344,-1.2345,-1.2348,-1.2349,-1.2379,-1.2344,-1.2346,-1.2346,-1.2347,-1.244,-1.2442,0,0,0,0,0,0,-1.2359,-1.2359,-1.2379,-1.2379,-1.2355,-1.2354,-1.2353,-1.236,-1.2355,-1.2352,-1.2345,-1.2342,-1.2347,-1.2348,-1.2349,-1.2394,-1.2346,-1.2347,-1.2348,-1.2438,-1.244,-1.2442,0,0,0,0,0,0,-1.2359,-1.2361,-1.2379,-1.2368,-1.237,-1.2356,-1.2364,-1.2361,-1.2364,-1.2354,-1.2351,-1.2352,-1.2345,-1.2347,-1.2372,-1.2394,-1.2348,-1.2349,-1.2437,-1.2439,-1.2441,-1.2485,0,0,0,0,0,0,-1.2358,-1.2361,-1.2375,-1.2369,-1.237,-1.2401,-1.2365,-1.2362,-1.2367,-1.2363,-1.2359,-1.2357,-1.2344,-1.237,-1.2373,-1.2395,-1.235,-1.2434,-1.2438,-1.244,-1.2482,-1.2489,-1.2495,0,0,0,0,0,-1.2357,-1.2388,-1.2376,-1.2379,-1.2388,-1.2403,-1.2404,-1.2388,-1.2369,-1.2383,-1.2376,-1.2357,-1.2391,-1.2372,-1.2376,-1.2399,-1.2433,-1.2437,-1.244,-1.2479,-1.2487,-1.2495,0,0,0,0,0,0,-1.2398,-1.2387,-1.2374,-1.2403,-1.2404,-1.2396,-1.2414,-1.2398,-1.2404,-1.24,-1.2381,-1.2381,-1.2408,-1.2406,-1.2385,-1.2436,-1.2409,-1.2413,-1.2437,-1.2445,-1.2451,-1.2451,-1.2351,0,0,0,0,0,-1.2411,-1.2423,-1.2413,-1.244,-1.2441,-1.2428,-1.2433,-1.2421,-1.2421,-1.2422,-1.2417,-1.2418,-1.2429,-1.2437,-1.2446,-1.2481,-1.248,-1.2499,-1.2505,-1.2511,-1.2515,-1.2533,-1.2542,-1.2454,-1.2454,-1.2454,0,0,-1.2437,-1.2432,-1.2441,-1.2448,-1.2447,-1.2461,-1.2428,-1.2444,-1.2454,-1.2424,-1.2447,-1.2443,-1.2444,-1.2474,-1.2487,-1.2473,-1.2539,-1.2515,-1.252,-1.2521,-1.2538,-1.2546,-1.2554,-1.2457,-1.2456,-1.2456,0,0,-1.2492,-1.2489,-1.2512,-1.2511,-1.251,-1.2501,-1.2507,-1.2501,-1.2497,-1.252,-1.2497,-1.251,-1.2529,-1.253,-1.2533,-1.2589,-1.2572,-1.2593,-1.2627,-1.2646,-1.2653,-1.2659,-1.2679,-1.2686,-1.2597,-1.2597,-1.2597,0,-1.2525,-1.2544,-1.2526,-1.2543,-1.2547,-1.252,-1.2543,-1.2544,-1.2546,-1.255,-1.2534,-1.2558,-1.2556,-1.2586,-1.26,-1.2603,-1.2609,-1.2593,-1.2653,-1.2659,-1.2664,-1.2683,-1.2691,-1.26,-1.2599,-1.2599,-1.2599,0,-1.2584,-1.2598,-1.2617,-1.2619,-1.2625,-1.2646,-1.2631,-1.2639,-1.2627,-1.262,-1.2643,-1.264,-1.2649,-1.2655,-1.2643,-1.2683,-1.2675,-1.2656,-1.2628,-1.2675,-1.2693,-1.27,-1.2603,-1.2602,-1.2602,-1.2601,0,0,-1.2665,-1.2657,-1.2664,-1.2665,-1.2662,-1.2673,-1.2692,-1.27,-1.2708,-1.2711,-1.2727,-1.2743,-1.2726,-1.273,-1.2718,-1.2734,-1.2779,-1.2714,-1.2714,-1.2726,-1.2824,-1.2838,-1.2847,-1.2767,-1.2769,-1.277,-1.2824,0,-1.2719,-1.275,-1.2735,-1.2769,-1.2782,-1.2756,-1.2773,-1.2773,-1.2767,-1.2778,-1.2771,-1.2783,-1.276,-1.2762,-1.2777,-1.277,-1.2798,-1.2766,-1.2783,-1.2784,-1.2784,-1.2856,-1.2871,-1.2922,-1.2831,-1.2832,-1.2833,0,-1.2785,-1.279,-1.2825,-1.282,-1.2824,-1.284,-1.2846,-1.2856,-1.2856,-1.285,-1.2855,-1.2839,-1.2858,-1.283,-1.2857,-1.2835,-1.2841,-1.2839,-1.2841,-1.2842,-1.2811,-1.2859,-1.2938,-1.2946,-1.2843,-1.2842,-1.2842,0,-1.2841,-1.2856,-1.2879,-1.2881,-1.2875,-1.2887,-1.2885,-1.2883,-1.2889,-1.2895,-1.2898,-1.2906,-1.2911,-1.2917,-1.2904,-1.2885,-1.2933,-1.2904,-1.2929,-1.293,-1.2941,-1.294,-1.3022,-1.2944,-1.2944,-1.2944,-1.2944,0,-1.2902,-1.2925,-1.2904,-1.2919,-1.2943,-1.2925,-1.2951,-1.2946,-1.2945,-1.2959,-1.2937,-1.2951,-1.2932,-1.2944,-1.2934,-1.2958,-1.296,-1.2957,-1.2954,-1.2959,-1.2959,-1.2963,-1.2959,-1.2946,-1.2946,-1.2945,-1.2945,0,-1.2969,-1.2956,-1.298,-1.2972,-1.2971,-1.2989,-1.2983,-1.2997,-1.2989,-1.3006,-1.3009,-1.2997,-1.301,-1.2997,-1.301,-1.3003,-1.3035,-1.3027,-1.3035,-1.3033,-1.3059,-1.3057,-1.3146,-1.3156,-1.3072,-1.3073,-1.3073,0,-1.3009,-1.3026,-1.302,-1.3027,-1.3026,-1.3038,-1.3044,-1.3027,-1.3034,-1.3035,-1.3048,-1.3059,-1.3067,-1.3088,-1.3081,-1.309,-1.3082,-1.3113,-1.3084,-1.3088,-1.3083,-1.3083,-1.3084,-1.3119,-1.312,-1.3121,-1.3122,0,-1.3082,-1.3075,-1.3083,-1.3089,-1.3097,-1.3101,-1.3104,-1.3111,-1.3093,-1.3102,-1.3115,-1.3121,-1.3133,-1.3144,-1.3151,-1.315,-1.3133,-1.3131,-1.3137,-1.3143,-1.3147,-1.3145,-1.3051,-1.3129,-1.3128,-1.3128,-1.3127,-1.3127,-1.3137,-1.3151,-1.3148,-1.3159,-1.3159,-1.3162,-1.3174,-1.3168,-1.3177,-1.3185,-1.3175,-1.319,-1.319,-1.3198,-1.3199,-1.3211,-1.3198,-1.3207,-1.321,-1.3212,-1.3216,-1.3144,-1.3212,-1.3212,-1.3212,-1.3211,-1.3211,0,-1.3209,-1.3206,-1.3216,-1.322,-1.3228,-1.3211,-1.3213,-1.3221,-1.3235,-1.3236,-1.3244,-1.3258,-1.3269,-1.3262,-1.3272,-1.3283,-1.3275,-1.3286,-1.3285,-1.3285,-1.3227,-1.3221,-1.3292,-1.3292,-1.3292,-1.3292,-1.3292,-1.3292,-1.3247,-1.327,-1.3262,-1.3285,-1.3282,-1.3296,-1.3299,-1.3302,-1.3303,-1.332,-1.3328,-1.3323,-1.3322,-1.3331,-1.334,-1.3338,-1.3342,-1.3356,-1.3351,-1.3297,-1.3289,-1.3282,-1.3276,-1.3357,-1.3357,-1.3408,-1.3408,-1.3409]},{"header":{"parameterUnit":"m.s-1","parameterCategory":1,"la1":30.2991,"la2":30.254,"lo1":-89.0895,"lo2":-89.0444,"dy":0.0017,"dx":0.0017,"nx":28,"ny":28,"refTime":"2023-04-17T15:00:00:Z","depth":0,"parameterNumber":3,"parameterNumberName":"V-component_of_WINDS"},"data":[0,0,0,0,0,0,0,0,0,0,0,0,0,0,0,0,0,0,0,0,0,0,0,0,0,0,0,0,0,0,0,0,0,0,0,0,0,0,0,0,0,0,0,0,0,0,0,0,0,0,0,0,0,0,0,0,0,0,2.9497,2.9497,0,2.952,2.9521,2.9521,2.9476,2.9475,2.9473,2.9472,2.9494,2.9496,2.9498,0,0,0,0,0,0,0,0,0,0,0,0,0,2.9411,2.9413,2.9497,2.9497,2.9498,2.952,2.9521,2.9521,2.9477,2.9475,2.9473,2.9471,2.9494,2.9496,2.9498,0,0,0,0,0,0,0,0,0,0,0,0,0,2.9443,2.9414,2.9497,2.9478,2.9477,2.952,2.9521,2.9521,2.9477,2.9475,2.9473,2.9471,2.9493,2.9496,2.9499,2.9561,0,0,2.9508,2.9509,0,0,0,0,0,0,0,0,2.9441,2.9446,2.9481,2.948,2.9478,2.9493,2.9498,2.9534,2.9478,2.9477,2.9472,2.9469,2.9496,2.9498,2.9507,2.9562,2.9563,2.9508,2.951,2.9511,2.9512,0,0,0,0,0,0,0,2.9439,2.9445,2.9506,2.9481,2.948,2.9468,2.947,2.9505,2.9498,2.9477,2.9474,2.9477,2.9494,2.9505,2.9508,2.9563,2.9508,2.951,2.9512,2.9513,2.9667,2.967,0,0,0,0,0,0,2.944,2.9443,2.9505,2.9507,2.9454,2.9471,2.9473,2.9491,2.9498,2.9497,2.9479,2.9475,2.9501,2.9504,2.9508,2.958,2.9511,2.9514,2.9515,2.9665,2.9668,2.967,0,0,0,0,0,0,2.9438,2.9446,2.9504,2.9474,2.9481,2.9475,2.9494,2.9492,2.9502,2.9499,2.9498,2.9491,2.9499,2.9504,2.9548,2.958,2.9515,2.9518,2.9662,2.9666,2.9669,2.9724,0,0,0,0,0,0,2.9436,2.9445,2.9469,2.9475,2.9483,2.9544,2.9497,2.9494,2.9508,2.9503,2.951,2.9509,2.9498,2.9544,2.9551,2.9583,2.952,2.9659,2.9664,2.9668,2.9719,2.9729,2.9737,0,0,0,0,0,2.9433,2.9484,2.9471,2.9479,2.9513,2.9546,2.9551,2.9537,2.9511,2.9534,2.9532,2.9509,2.9576,2.9548,2.9556,2.9589,2.9657,2.9663,2.9668,2.9715,2.9727,2.9737,0,0,0,0,0,0,2.9482,2.9485,2.947,2.9525,2.9536,2.9539,2.9568,2.955,2.9568,2.9563,2.9545,2.9547,2.9594,2.9596,2.9566,2.9649,2.9612,2.9619,2.9645,2.9656,2.9665,2.9663,2.9522,0,0,0,0,0,2.9499,2.9527,2.9528,2.9576,2.9582,2.9575,2.9589,2.9577,2.9587,2.9592,2.9593,2.9603,2.9626,2.9642,2.9663,2.972,2.972,2.9747,2.9756,2.9763,2.9769,2.9797,2.9808,2.9688,2.9688,2.9688,0,0,2.9535,2.954,2.9559,2.9586,2.9593,2.9621,2.9579,2.961,2.963,2.9596,2.9637,2.9638,2.9649,2.9699,2.9721,2.9702,2.9802,2.977,2.9775,2.9777,2.9803,2.9815,2.9825,2.9691,2.9691,2.969,0,0,2.9614,2.9622,2.9662,2.967,2.9681,2.9675,2.9685,2.9691,2.969,2.9731,2.9706,2.9729,2.977,2.9777,2.9787,2.9868,2.9847,2.9876,2.9922,2.9949,2.9959,2.9967,2.9994,3.0004,2.9882,2.9882,2.9882,0,2.9657,2.9699,2.9685,2.9718,2.9729,2.97,2.974,2.9748,2.9766,2.9774,2.9753,2.9802,2.9808,2.9858,2.9878,2.9887,2.9896,2.9874,2.9959,2.9967,2.9975,3.0,3.001,2.9885,2.9885,2.9884,2.9884,0,2.975,2.978,2.981,2.9828,2.9843,2.988,2.9869,2.9887,2.9874,2.987,2.9911,2.9916,2.9937,2.9949,2.9937,2.9997,2.9985,2.9962,2.9924,2.9989,3.0013,3.0023,2.989,2.9889,2.9888,2.9887,0,0,2.9861,2.9869,2.9881,2.9887,2.9897,2.9919,2.9953,2.9974,2.9988,3.0002,3.0028,3.0063,3.0042,3.0052,3.0041,3.0066,3.0127,3.0039,3.0039,3.0054,3.0192,3.0207,3.0219,3.0114,3.0115,3.0117,3.019,0,2.9938,2.9997,2.9984,3.0042,3.0068,3.004,3.0069,3.0078,3.0076,3.0096,3.0093,3.0117,3.0088,3.0094,3.0117,3.0115,3.0154,3.0109,3.0137,3.0138,3.0133,3.0232,3.0249,3.0318,3.0199,3.0201,3.0202,0,3.0035,3.0052,3.0112,3.0116,3.0126,3.0153,3.017,3.0191,3.02,3.0196,3.0208,3.0191,3.0224,3.0187,3.0231,3.02,3.0211,3.0211,3.0214,3.0214,3.0173,3.0233,3.0339,3.0349,3.0217,3.0216,3.0215,0,3.0107,3.0145,3.0185,3.0192,3.0198,3.0217,3.0221,3.0228,3.024,3.0255,3.0263,3.0282,3.0291,3.0306,3.0294,3.0268,3.0339,3.0301,3.0335,3.0336,3.035,3.0349,3.0458,3.036,3.036,3.036,3.036,0,3.0194,3.0231,3.0217,3.0242,3.0282,3.0267,3.0307,3.0308,3.0314,3.0337,3.0315,3.0337,3.0321,3.0342,3.0333,3.0369,3.0375,3.0371,3.0368,3.0372,3.0372,3.0378,3.0372,3.0363,3.0362,3.0362,3.0361,0,3.028,3.0273,3.0314,3.0317,3.0318,3.0348,3.035,3.0372,3.0367,3.0397,3.0403,3.0396,3.0419,3.0409,3.0434,3.0428,3.0474,3.0466,3.0471,3.0468,3.0502,3.0498,3.0616,3.063,3.0526,3.0527,3.0527,0,3.0335,3.0363,3.0368,3.0382,3.0387,3.041,3.0423,3.0409,3.0423,3.0434,3.0455,3.0476,3.0492,3.053,3.0526,3.0544,3.0535,3.0575,3.0537,3.054,3.0533,3.0531,3.0533,3.0582,3.0583,3.0584,3.0585,0,3.0432,3.0426,3.0446,3.0463,3.0479,3.0492,3.0503,3.0516,3.0502,3.0519,3.0542,3.0554,3.0579,3.0599,3.0615,3.0618,3.0599,3.0597,3.0606,3.0609,3.061,3.0608,3.049,3.0594,3.0593,3.0593,3.0592,3.0592,3.0503,3.0526,3.0533,3.0554,3.0561,3.0572,3.0592,3.059,3.0609,3.0628,3.0619,3.0645,3.0652,3.0671,3.0676,3.0696,3.068,3.0693,3.0696,3.0699,3.0702,3.0609,3.0699,3.0699,3.0699,3.0699,3.0698,0,3.0597,3.06,3.062,3.0636,3.0653,3.0634,3.0645,3.066,3.0683,3.0692,3.0708,3.0733,3.0753,3.0751,3.0769,3.0785,3.0777,3.079,3.0788,3.0788,3.0716,3.0706,3.0796,3.0796,3.0796,3.0796,3.0796,3.0796,3.0648,3.0685,3.068,3.0719,3.0722,3.0748,3.0755,3.0764,3.0771,3.08,3.0817,3.0815,3.0819,3.0837,3.0853,3.0852,3.0859,3.0875,3.0871,3.0803,3.0794,3.0784,3.0775,3.0877,3.0877,3.094,3.0941,3.0941]}]]